Weather in Limenaria

Greece     40°37′38″N   24°34′32″E
temp.,
°C
wind,
m/s
gust,
m/s
humid.,
%
clouds,
%
prec.,
mm/h
press.,
hPa
HPBL,
m
19 april, mon
mon1900:00+13ne33804 0.0 1014109
03:00+13e3482100 0.0 1013161
06:00+13e338291 0.1 1013160
09:00+13e347669 0.3 1013305
12:00+14ese237756 0.1 1012275
15:00+13nnw038148 0.8 1011290
18:00+13e128176 0.3 1009345
21:00+12wnw2386100 2.6 1009142
20 april, tue
tue2000:00+12wsw348326 0.9 1009169
03:00+11wnw568063 1.1 1009432
06:00+10nnw227790 0.1 1010273
09:00+11n117220 0.1 1013332
12:00+12sw116724 0.0 1014446
15:00+13ssw12624 0.1 1014479
18:00+13se12645 0.0 1014389
21:00+13ene22701 0.0 1016164
21 april, wed
wed2100:00+12ene3474100 0.0 1017151
03:00+12ene337685 0.0 1017172
06:00+11ene338043 0.0 1017156
09:00+12ene22740 0.0 1018250
12:00+13nw11720 0.0 1019298
15:00+14sw23651 0.0 1018355
18:00+15ssw34661 0.0 1018303
21:00+14sse23721 0.0 101962
22 april, thu
thu2200:00+14se01730 0.0 102011
03:00+13ne11730 0.0 102038
06:00+12ene22750 0.0 1020102
09:00+13ne11690 0.0 1022156
12:00+14sw22655 0.0 1023324
15:00+15ssw2263100 0.0 1022342
18:00+16ssw3363100 0.0 1020256
21:00+15sse126785 0.0 102121
23 april, fri
fri2300:00+14ene1168100 0.0 102012
03:00+14ene1169100 0.0 101934
06:00+14ene2269100 0.0 101866
09:00+14ene2269100 0.0 101860
12:00+15n1164100 0.0 1019212
15:00+15sw2261100 0.0 1018232
18:00+16nnw2265100 0.0 1016127
21:00+15nnw1274100 0.0 101622